SCP
0 0 0 0 0 0 0 0 0 0 0 0 0 0 0 0 0 0 0 0 0 0 0 0 0 0 0 0 0 0 0 0 0 0 0 0 0 0 0 0 0 0 0
0 0 0 0 0 0 0 0 0 0 0 0 0 0 0 0 0 0 0 0 0 0 0 0 0 0 0 0 0 0 0 0 0 0 0 0 0 0 0 0 0 0 0
0 0 0 0 0 0 0 0 0 0 0 0 0 0 0 0 0 0 0 0 0 0 0 0 0 0 0 0 0 0 0 0 0 0 0 0 0 0 0 0 0 0 0
0 0 0 0 0 0 0 0 0 0 0 0 0 0 0 0 0 0 0 0 0 0 0 0 0 0 0 0 0 0 0 0 0 0 0 0 0 0 0 0 0 0 0
0 0 0 0 0 0 0 0 0 0 0 0 0 0 0 0 0 0 0 0 0 0 0 0 0 0 0 0 0 0 0 0 0 0 0 0 0 0 0 0 0 0 0
0 0 0 0 0 0 0 0 0 0 0 0 0 0 0 0 0 0 0 0 0 0 0 0 0 0 0 0 0 0 0 0 0 0 0 0 0 0 0 0 0 0 0
0 0 0 0 0 0 0 0 0 0 0 0 0 0 0 0 0 0 0 0 0 0 0 0 0 0 0 0 0 0 0 0 0 0 0 0 0 0 0 0 0 0 0
0 0 0 0 0 0 0 0 0 0 0 0 0 0 0 0 0 0 0 0 0 0 0 0 0 0 0 0 0 0 0 0 0 0 0 0 0 0 0 0 0 0 0
0 0 0 0 0 0 0 0 0 0 0 0 0 0 0 0 0 0 0 0 0 0 0 0 0 0 0 0 0 0 0 -0 0 0 0 0 0 0 0 0 0 0 0
0 0 0 0 0 0 0 0 0 0 0 0 0 0 0 0 0 0 0 0 0 0 0 0 0 0 0 0 0 0 0 0 0 0 0 0 0 0 0 0 0 0 0
0 0 0 0 0 0 0 0 0 0 0 0 0 0 0 0 0 0 0 0 0 0 0 0 0 0 0 0 0 0 0 0 0 0 0 0 0 0 0 0 0 0 0
0 0 0 0 0 0 0 0 0 0 0 0 0 0 0 0 0 0 0 0 0 0 0 0 0 0 0 0 0 0 0 0 0 0 0 0 0 0 0 0 0 0 0
0 0 0 0 0 0 0 0 0 0 0 0 0 0 0 0 0 0 0 0 0 0 0 0 0 0 0 0 0 0 0 0 0 0 0 0 0 0 0 0 0 0 0
0 0 0 0 0 0 0 0 0 0 0 0 0 0 0 0 0 0 0 0 0 0 0 0 0 0 0 0 0 0 0 0 0 0 0 0 0 0 0 0 0 0 0
0 0 0 0 0 0 0 0 0 0 0 0 0 0 0 0 0 0 0 0 0 0 0 0 0 0 0 0 0 0 0 0 0 0 0 0 0 0 0 0 0 0 0
0 0 0 0 0 0 0 0 0 0 0 0 0 0 0 0 0 0 0 0 0 0 0 0 0 0 0 0 0 0 0 0 0 0 0 0 0 0 0 0 0 0 0
0 0 0 0 0 0 0 0 0 0 0 0 0 0 0 0 0 0 0 0 0 0 0 0 0 0 0 0 0 0 0 0 0 0 0 0 0 0 0 0 0 0 0
0 0 0 0 0 0 0 0 0 0 0 0 0 0 0 0 0 0 0 0 0 0 0 0 0 0 0 0 0 0 0 0 0 0 0 0 0 0 0 0 0 0 0
0 0 0 0 0 0 0 0 0 0 0 0 0 0 0 0 0 0 0 0 0 0 0 0 0 0 0 0 0 0 0 0 0 0 0 0 0 0 0 0 0 0 0
0 0 0 0 0 0 0 0 0 0 0 0 0 0 0 0 0 0 0 0 0 0 0 0 0 0 0 0 0 0 0 0 0 0 0 0 0 0 0 0 0 0 0
0 0 0 0 0 0 0 0 0 0 0 0 0 0 0 0 0 0 0 0 0 0 0 0 0 0 0 0 0 0 0 0 0 0 0 0 0 0 0 0 0 0 0
0 0 0 0 0 0 0 0 0 0 0 0 0 0 0 0 0 0 0 0 0 0 0 0 0 0 0 0 0 0 0 0 0 0 0 0 0 0 0 0 0 0 0
0 0 0 0 0 0 0 0 0 0 0 0 0 0 0 0 0 0 0 0 0 0 0 0 0 0 0 -0 0 0 0 0 0 0 0 0 0 0 0 0 0 0 0
0 0 0 0 0 0 0 0 0 0 0 0 0 0 0 0 0 0 0 0 0 0 0 0 0 0 0 0 0 0 0 0 0 0 0 0 0 0 0 0 0 0 0
0 0 0 0 0 0 0 0 0 0 0 0 0 0 0 0 0 0 0 0 0 0 0 0 0 0 0 0 0 0 0 0 0 0 0 0 0 0 0 0 0 0 0
0 0 0 0 0 0 0 0 0 0 0 0 0 0 0 0 0 0 0 0 0 0 0 0 0 0 0 0 0 0 0 0 0 0 0 0 0 0 0 0 0 0 0
Wind_Speed
8 8 7 6 6 5 7 6 5 4 3 2 2 2 2 2 3 3 5 5 5 5 4 3 4 4 4 4 4 3 3 2 2 2 2 2 3 3 3 3 3 4 5
9 8 7 6 6 6 6 6 5 5 4 2 2 2 2 2 3 3 4 4 5 5 4 4 3 4 3 4 4 4 3 2 3 2 1 2 3 3 3 3 3 4 4
11 10 8 6 5 6 5 5 5 5 4 3 2 3 2 2 2 3 2 3 4 4 4 4 4 3 3 3 4 4 4 3 3 3 2 2 1 1 2 3 4 4 4
11 10 8 7 6 6 5 5 5 5 5 4 3 3 3 2 2 2 2 2 3 3 4 4 4 4 3 3 3 4 3 3 3 3 3 3 2 1 1 2 3 4 4
10 11 10 9 7 6 5 5 5 5 4 4 3 3 2 2 2 2 3 3 3 3 3 3 3 4 3 3 4 4 4 3 3 2 2 3 3 3 2 1 2 2 2
10 10 10 8 7 6 5 5 5 4 4 4 4 4 3 3 4 3 2 2 2 2 2 2 3 3 3 3 3 3 4 3 3 3 3 3 2 2 2 1 1 1 1
10 10 10 9 7 7 6 5 5 4 4 4 4 5 4 3 4 3 2 2 2 2 1 2 3 3 3 3 3 3 3 3 4 4 3 3 2 2 2 2 1 1 0
9 10 10 9 8 8 7 6 6 5 3 3 3 4 4 2 3 2 2 2 2 2 2 3 4 3 3 4 3 3 3 3 4 4 3 3 3 3 3 2 2 2 2
11 10 10 10 9 8 7 6 6 5 4 3 3 3 4 3 3 3 3 2 3 2 2 3 3 3 3 4 4 3 3 3 4 3 4 3 3 3 3 3 2 2 2
11 11 10 10 9 8 6 6 6 6 5 5 4 4 4 3 3 3 3 3 3 3 2 3 3 3 3 3 3 3 2 3 2 3 4 3 3 3 3 3 3 3 2
10 10 9 9 9 8 7 6 6 6 5 5 5 5 4 3 3 3 3 3 3 3 2 3 3 3 3 3 3 3 3 3 3 3 4 3 4 3 3 3 3 3 3
9 10 10 10 9 9 8 7 6 6 5 5 5 5 5 4 3 4 4 4 4 3 3 3 3 3 3 3 3 3 2 3 3 3 3 3 3 4 3 3 3 3 2
9 9 9 9 9 9 8 7 7 7 6 5 5 5 5 4 3 4 4 3 3 3 3 3 3 3 3 3 3 2 2 3 3 4 4 4 4 4 3 4 3 3 3
8 9 8 8 8 8 8 7 7 7 7 6 5 5 5 4 4 4 4 3 3 3 3 4 3 3 3 3 3 2 2 3 4 4 4 4 5 4 4 4 4 3 3
9 9 9 8 8 8 7 7 7 7 7 6 6 5 5 5 4 4 4 3 3 3 4 4 4 3 3 3 3 2 2 3 3 4 4 5 6 7 5 4 3 3 3
9 9 10 9 9 8 7 6 7 8 7 7 6 5 6 5 4 4 4 4 3 3 3 4 4 4 3 4 5 4 2 2 3 3 3 4 5 6 7 7 6 5 3
9 9 9 9 9 9 8 7 7 8 7 7 6 6 6 5 4 4 4 4 3 3 3 4 4 4 3 4 4 5 3 3 3 3 2 3 4 4 3 4 4 4 5
9 9 8 8 8 9 8 7 7 8 8 7 7 6 6 5 5 4 4 4 3 3 3 3 4 4 3 4 3 3 2 2 3 3 3 3 3 3 3 2 3 2 2
7 7 8 8 8 9 9 8 8 7 7 7 7 7 7 6 5 5 4 4 4 3 4 4 3 4 3 3 3 2 1 2 2 2 3 3 3 5 6 3 2 2 3
6 7 7 8 8 8 9 8 8 7 7 7 7 7 7 6 6 5 4 3 4 4 4 4 3 3 3 4 3 2 1 1 1 1 2 4 4 5 5 2 2 3 3
6 7 7 6 7 8 9 8 8 7 7 7 7 7 7 6 6 5 4 4 4 3 4 4 3 3 4 5 4 3 1 1 1 1 1 1 3 3 3 3 1 3 4
6 6 6 5 6 8 9 8 7 7 7 7 7 7 7 6 6 5 4 4 4 4 3 3 2 2 3 4 4 4 2 1 1 1 1 1 1 0 2 2 3 6 5
6 5 5 6 5 6 7 8 7 8 8 7 7 7 6 5 6 6 5 4 4 3 3 3 3 2 2 3 5 4 3 1 1 1 1 0 1 1 2 3 4 4 2
6 6 6 6 5 5 6 7 8 8 9 8 7 7 6 6 5 4 4 4 3 3 3 3 3 2 2 2 2 2 2 2 1 1 1 2 2 1 2 3 2 2 1
5 5 6 6 6 6 6 7 8 8 8 8 7 6 6 6 5 4 3 3 3 4 4 3 3 3 3 3 4 3 2 2 2 1 1 1 0 1 1 1 1 1 1
5 5 5 6 6 7 7 6 7 8 8 7 6 5 5 5 5 5 3 4 3 4 4 4 4 3 4 5 5 4 3 2 1 1 1 1 1 1 1 2 2 1 2
Wind_Direction
152 142 143 147 144 133 123 122 123 116 103 92 94 85 72 67 60 55 46 41 37 29 51 45 44 44 42 31 36 36 27 20 39 47 38 45 61 71 65 54 47 51 50
150 148 153 154 146 132 128 130 120 108 95 81 93 103 92 86 84 59 44 43 42 25 42 51 54 52 46 31 33 38 23 10 30 57 58 48 20 16 67 70 64 53 44
157 158 160 149 138 139 136 134 130 123 117 110 86 88 72 64 87 90 64 48 55 39 28 39 52 52 57 41 37 35 35 18 1 32 61 81 68 347 23 58 63 57 44
155 156 156 150 151 146 142 141 132 130 134 132 124 124 123 115 104 108 113 93 71 60 37 37 47 54 59 56 40 42 34 35 10 7 26 54 89 94 44 17 50 61 57
158 158 159 158 160 152 149 141 136 139 134 128 121 123 121 121 107 102 102 92 76 70 56 36 44 54 56 57 56 50 41 41 29 24 18 18 23 28 89 61 22 39 47
159 158 156 154 154 144 142 139 139 131 139 153 147 137 128 118 109 96 102 99 86 71 69 55 56 59 54 56 53 54 51 45 39 34 39 38 33 12 46 62 54 72 29
159 156 152 151 151 147 147 147 143 147 163 163 148 135 135 132 125 124 106 99 92 74 66 66 63 59 52 60 54 50 49 46 42 43 36 32 30 31 44 49 17 40 52
156 153 153 154 155 155 158 158 154 157 159 154 140 135 138 131 116 114 115 106 99 91 69 73 72 63 55 62 57 55 42 47 45 41 38 33 20 27 41 55 45 21 16
157 157 155 157 158 158 162 164 159 157 162 159 132 123 129 121 129 134 111 105 102 100 90 91 87 71 61 59 57 59 46 47 40 35 41 40 25 25 23 28 52 75 39
160 159 160 161 160 156 161 166 163 161 166 157 145 129 123 122 128 122 116 112 109 102 100 90 90 75 69 74 60 58 40 55 53 52 49 38 30 26 25 22 25 50 74
163 161 160 158 156 155 164 167 163 163 160 152 143 140 134 126 131 124 119 114 112 115 112 104 101 89 75 74 71 66 52 49 45 49 56 41 39 33 27 20 22 34 58
160 158 157 156 159 161 167 170 168 163 155 151 145 142 134 134 146 129 124 122 125 130 120 112 109 105 91 77 70 68 55 59 53 48 54 50 48 35 28 25 23 23 34
156 154 155 158 161 164 169 172 168 161 152 144 140 137 141 143 135 121 125 133 132 130 118 112 101 88 79 72 64 68 47 57 60 54 50 47 50 39 25 29 24 12 18
155 157 155 157 160 164 168 170 165 153 148 148 145 141 141 135 135 134 135 131 126 125 123 112 102 95 78 61 48 44 51 62 63 66 65 58 53 45 27 31 19 18 17
158 158 158 159 162 164 167 167 155 149 148 146 145 147 142 135 136 135 131 116 106 107 108 105 97 84 75 49 41 31 51 73 79 78 80 77 73 63 53 44 23 20 20
164 163 163 162 167 167 164 158 155 153 150 151 149 141 139 136 136 135 125 115 110 110 111 111 103 90 79 54 47 41 28 52 74 90 96 96 81 68 55 48 41 28 28
164 165 168 168 169 167 167 165 158 153 154 150 140 140 140 134 139 135 122 125 127 116 108 107 108 103 86 66 50 42 46 55 52 57 69 63 65 64 51 28 18 11 17
164 167 170 170 169 165 165 163 158 157 157 149 143 141 139 140 140 133 135 138 128 121 116 107 110 114 105 88 73 53 58 74 67 54 56 72 61 45 47 30 15 360 358
161 163 166 165 166 163 162 160 158 155 152 146 150 150 147 146 144 144 150 145 134 128 127 120 119 117 110 100 84 61 60 91 83 67 51 63 67 37 36 34 4 347 333
148 154 157 158 160 160 157 156 157 157 155 151 151 148 146 148 151 150 148 140 136 140 134 133 139 139 136 135 123 108 89 103 105 91 75 68 72 46 35 34 360 337 323
140 143 148 151 156 155 153 157 156 159 153 145 141 142 148 152 148 144 144 139 140 143 144 148 152 143 138 148 147 137 129 112 94 98 94 81 82 61 26 6 340 321 324
133 135 139 140 144 148 153 156 153 148 141 142 144 147 154 155 147 143 145 146 146 151 155 148 145 131 134 143 153 151 150 112 104 97 103 115 84 43 330 322 321 331 337
133 131 135 136 138 144 149 147 145 143 142 145 148 149 150 146 146 151 154 156 157 159 163 156 155 149 140 139 141 153 161 158 145 134 130 271 289 287 293 299 317 329 331
138 139 141 144 147 145 141 142 141 142 144 148 151 153 153 147 142 143 148 151 162 165 167 166 163 158 150 144 149 161 172 176 195 254 259 273 275 282 295 305 301 292 294
143 148 153 155 152 142 139 139 144 148 150 150 153 153 147 145 142 137 141 156 164 172 171 172 167 163 170 175 162 161 171 176 196 209 243 256 274 287 291 293 283 277 297
146 149 155 155 153 147 146 146 149 155 157 157 159 157 152 149 147 140 115 71 113 132 139 143 150 142 146 147 143 146 150 165 197 177 204 232 239 243 258 273 288 292 287